1486296000.98,55462,11.06,72150.8,-3.09,-6.47,-6.47,0,*5A
1486296002.24,55463,11.06,72144.5,-3.09,-6.97,-7.11,0,*54
1486296003.47,55464,11.06,72148.3,-3.09,-6.89,-7.11,0,*5C
1486296004.69,55465,11.06,72154.5,-3.09,-6.47,-6.59,0,*52
1486296005.89,55466,11.06,72148.0,-3.11,-6.73,-6.77,0,*53
1486296007.12,55467,11.06,72148.8,-3.11,-7.19,-7.31,0,*5C
1486296008.36,55468,11.06,72150.3,-3.11,-7.27,-7.31,0,*5E
1486296009.57,55469,11.06,72152.3,-3.11,-6.89,-6.81,0,*50
1486296010.79,55470,11.06,72158.3,-3.11,-6.89,-6.93,0,*5B
1486296012.06,55471,11.06,72158.0,-3.13,-6.93,-7.01,0,*59
1486296013.31,55472,11.06,72156.0,-3.13,-6.89,-6.93,0,*5B
1486296014.53,55473,11.06,72158.3,-3.17,-6.81,-6.85,0,*51
1486296015.78,55474,11.06,72162.0,-3.13,-6.81,-6.93,0,*55
1486296017.01,55475,11.06,72162.0,-3.17,-6.81,-6.85,0,*57
1486296018.23,55476,11.06,72158.5,-3.17,-6.85,-6.85,0,*50
1486296019.45,55477,11.06,72158.0,-3.17,-6.73,-6.73,0,*51
1486296020.7,55478,11.06,72162.5,-3.17,-6.73,-6.93,0,*50
1486296021.92,55479,11.06,72160.3,-3.17,-6.59,-6.73,0,*57
1486296023.15,55480,11.06,72156.0,-3.17,-6.31,-6.43,0,*5C
1486296024.36,55481,11.06,72162.3,-3.17,-6.69,-6.73,0,*53
1486296025.56,55482,11.06,72152.8,-3.19,-6.59,-6.69,0,*56
1486296026.76,55483,11.06,72146.5,-3.19,-6.59,-6.73,0,*5C
1486296027.98,55484,11.06,72148.8,-3.21,-6.85,-6.85,0,*58
1486296029.2,55485,11.06,72152.3,-3.21,-6.89,-6.89,0,*59
1486296030.41,55486,11.06,72154.5,-3.19,-6.43,-6.59,0,*5A
1486296031.68,55487,11.06,72160.8,-3.21,-6.19,-6.23,0,*52
1486296032.91,55488,11.06,72160.5,-3.21,-6.31,-6.31,0,*54
1486296034.13,55489,11.06,72166.3,-3.19,-6.27,-6.31,0,*59
1486296035.33,55490,11.06,72154.8,-3.19,-6.73,-6.77,0,*52
1486296036.56,55491,11.0,72148.8,-3.21,-6.43,-6.35,0,*5D
1486296037.78,55492,11.06,72156.0,-3.21,-6.47,-6.59,0,*50
1486296039.01,55493,11.06,72154.3,-3.21,-6.47,-6.47,0,*5E
1486296040.21,55494,11.06,72158.3,-3.19,-6.73,-6.81,0,*5F
1486296041.42,55495,11.06,72158.8,-3.19,-7.23,-7.23,0,*53
1486296042.64,55496,11.06,72164.5,-3.23,-6.89,-6.97,0,*56
1486296043.83,55497,11.06,72156.0,-3.23,-6.47,-6.59,0,*57
1486296045.08,55498,11.06,72160.5,-3.23,-6.97,-6.97,0,*57
1486296046.27,55499,11.06,72162.3,-3.23,-6.73,-6.73,0,*56
1486296047.47,55500,11.06,72160.0,-3.23,-6.35,-6.43,0,*56
1486296048.67,55501,11.06,72152.3,-3.23,-6.73,-6.85,0,*5F
1486296049.89,55502,11.06,72160.3,-3.23,-7.23,-7.35,0,*52
1486296051.14,55503,11.06,72158.3,-3.25,-7.05,-7.15,0,*53
1486296052.39,55504,11.06,72156.5,-3.25,-7.15,-7.31,0,*53
1486296053.63,55505,11.06,72158.5,-3.27,-7.31,-7.43,0,*53
1486296054.9,55506,11.06,72158.0,-3.25,-7.27,-7.31,0,*50
1486296056.17,55507,11.06,72158.5,-3.25,-7.27,-7.31,0,*51
1486296057.39,55508,11.06,72162.5,-3.27,-7.49,-7.65,0,*55
1486296058.61,55509,11.06,72160.5,-3.27,-7.35,-7.49,0,*51
1486296059.82,55510,11.06,72160.5,-3.27,-7.19,-7.23,0,*5B
1486296061.06,55511,11.06,72162.0,-3.27,-6.93,-6.93,0,*53
1486296062.25,55512,11.06,72160.3,-3.27,-6.69,-6.85,0,*52
1486296063.48,55513,11.06,72162.8,-3.29,-6.73,-6.81,0,*52
1486296064.7,55514,11.06,72156.3,-3.27,-7.23,-7.31,0,*55
1486296065.93,55515,11.06,72152.8,-3.25,-7.15,-7.19,0,*59
1486296067.18,55516,11.06,72154.8,-3.29,-6.93,-7.11,0,*51
1486296068.45,55517,11.0,72150.8,-3.29,-6.97,-7.05,0,*51
1486296069.69,55518,11.06,72150.8,-3.29,-6.63,-6.73,0,*55
1486296070.92,55519,11.06,72156.0,-3.27,-6.19,-6.31,0,*51
1486296072.11,55520,11.06,72150.0,-3.27,-6.55,-6.69,0,*5E
1486296073.36,55521,11.06,72152.0,-3.29,-6.85,-6.93,0,*59
1486296074.55,55522,11.06,72152.5,-3.27,-6.39,-6.39,0,*53
1486296075.8,55523,11.06,72154.0,-3.29,-6.27,-6.31,0,*5B
1486296077.04,55524,11.06,72148.5,-3.29,-6.31,-6.27,0,*5C
1486296078.24,55525,11.06,72154.5,-3.27,-6.43,-6.39,0,*59
1486296079.48,55526,11.06,72156.3,-3.29,-6.19,-6.05,0,*54
1486296080.73,55527,11.06,72156.3,-3.29,-6.19,-6.13,0,*52
1486296081.98,55528,11.0,72154.0,-3.29,-6.01,-5.93,0,*5F
1486296083.2,55529,11.06,72152.5,-3.29,-6.05,-6.01,0,*52
1486296084.39,55530,11.06,72156.8,-3.27,-20.05,-26.65,0,*50
1486296085.66,55531,11.06,72154.8,-3.29,-37.99,-38.35,0,*56
1486296086.87,55532,11.06,72154.5,-3.35,-38.35,-38.61,0,*50
1486296088.1,55533,11.06,72156.5,-3.35,-38.23,-38.61,0,*56
1486296089.37,55534,11.06,72158.8,-3.35,-37.93,-38.23,0,*53
1486296090.58,55535,11.06,72158.0,-3.35,-37.45,-37.75,0,*55
1486296091.87,55536,11.06,72162.0,-3.37,-38.11,-38.29,0,*5C
1486296093.11,55537,11.06,72160.3,-3.39,-38.49,-38.85,0,*58
1486296094.37,55538,11.06,72158.3,-3.45,-37.93,-38.23,0,*58
1486296095.6,55539,11.06,72158.8,-3.45,-38.55,-38.79,0,*53
1486296096.85,55540,11.06,72162.3,-3.45,-37.93,-38.11,0,*56
1486296098.08,55541,11.06,72164.8,-3.45,-37.45,-37.81,0,*5A
1486296099.33,55542,11.06,72156.3,-3.47,-37.57,-37.93,0,*5B
1486296100.59,55543,11.06,72142.0,-3.49,-37.63,-37.99,0,*59
1486296101.82,55544,11.06,72144.3,-3.49,-38.23,-38.61,0,*5D
1486296103.08,55545,11.06,72148.5,-3.51,-38.43,-38.67,0,*55
1486296104.34,55546,11.06,72152.0,-3.51,-38.43,-38.67,0,*56
1486296105.58,55547,11.06,72150.8,-3.53,-38.49,-38.73,0,*5A
1486296106.82,55548,11.06,72148.5,-3.53,-38.05,-38.29,0,*52
1486296108.04,55549,11.06,72156.3,-3.55,-37.57,-38.05,0,*53
1486296109.3,55550,11.06,72156.8,-3.55,-37.51,-37.87,0,*58
1486296110.58,55551,11.06,72162.0,-3.55,-37.51,-37.93,0,*5C
1486296111.82,55552,11.06,72168.3,-3.57,-37.45,-37.93,0,*58
1486296113.06,55553,11.06,72164.8,-3.57,-37.45,-37.63,0,*56
1486296114.29,55554,11.06,72162.0,-3.57,-37.57,-37.93,0,*5D
1486296115.58,55555,11.06,72174.8,-3.59,-37.93,-38.29,0,*54
1486296116.84,55556,11.06,72176.3,-3.59,-37.39,-37.57,0,*51
1486296118.1,55557,11.06,72164.8,-3.59,-37.57,-37.81,0,*53
1486296119.36,55558,11.06,72162.0,-3.61,-37.51,-37.69,0,*57
1486296120.62,55559,11.06,72154.5,-3.59,-37.45,-37.63,0,*52
1486296121.86,55560,11.06,72162.3,-3.61,-37.63,-37.87,0,*5D
1486296123.15,55561,11.06,72168.5,-3.59,-37.93,-38.29,0,*53
1486296124.39,55562,11.06,72178.0,-3.61,-37.81,-38.05,0,*56
1486296125.66,55563,11.06,72164.5,-3.67,-37.87,-37.93,0,*57
1486296126.93,55564,11.06,72158.3,-3.67,-36.97,-37.21,0,*59
1486296128.19,55565,11.06,72152.0,-3.67,-37.09,-37.33,0,*5D
1486296129.45,55566,11.06,72146.5,-3.67,-36.73,-36.91,0,*5B
1486296130.72,55567,11.06,72144.3,-3.67,-36.55,-36.79,0,*58
1486296131.96,55568,11.06,72166.0,-3.65,-36.73,-37.21,0,*5D
1486296133.22,55569,11.06,72160.0,-3.65,-37.69,-38.23,0,*5B
1486296134.49,55570,11.06,72158.5,-3.67,-37.87,-38.11,0,*50
1486296135.78,55571,11.06,72160.0,-3.67,-37.09,-36.91,0,*51
1486296137.05,55572,11.06,72168.8,-3.67,-36.37,-36.55,0,*56
1486296138.29,55573,11.06,72160.3,-3.65,-37.15,-37.21,0,*56
1486296139.56,55574,11.06,72158.0,-3.67,-37.15,-37.51,0,*54
1486296140.79,55575,11.06,72154.0,-3.67,-38.43,-38.85,0,*5F
1486296142.03,55576,11.06,72168.3,-3.69,-39.47,-39.71,0,*5D
1486296143.29,55577,11.06,72158.5,-3.71,-38.91,-39.09,0,*50
1486296144.59,55578,11.06,72156.3,-3.73,-37.81,-37.99,0,*54
1486296145.84,55579,11.06,72162.0,-3.73,-36.31,-36.55,0,*5E
1486296147.12,55580,11.06,72166.5,-3.73,-36.13,-36.37,0,*5C
1486296148.38,55581,11.06,72160.8,-3.71,-36.25,-36.67,0,*5F
1486296149.64,55582,11.06,72156.8,-3.71,-36.01,-36.13,0,*59
1486296150.9,55583,11.06,72160.3,-3.71,-36.97,-37.21,0,*57
1486296152.16,55584,11.06,72160.3,-3.71,-38.11,-38.35,0,*5A
1486296153.44,55585,11.06,72156.3,-3.71,-37.63,-37.81,0,*51
1486296154.7,55586,11.06,72160.5,-3.71,-37.39,-37.57,0,*56
1486296155.93,55587,11.06,72160.0,-3.71,-37.27,-37.57,0,*58
1486296157.16,55588,11.06,72160.5,-3.71,-37.45,-37.57,0,*53
1486296158.4,55589,11.06,72162.3,-3.73,-38.43,-38.61,0,*53
1486296159.61,55590,11.06,72164.8,-3.75,-38.17,-38.43,0,*5C
1486296160.88,55591,11.06,72166.5,-3.75,-37.81,-37.81,0,*5C
1486296162.12,55592,11.06,72168.5,-3.75,-37.33,-37.63,0,*5A
1486296163.41,55593,11.06,72154.3,-3.77,-38.29,-38.29,0,*5C
1486296164.66,55594,11.06,72142.0,-3.77,-37.57,-37.69,0,*56
1486296165.86,55595,11.06,72152.5,-3.79,-36.19,-36.73,0,*58
1486296167.1,55596,11.06,72152.8,-3.79,-35.95,-36.19,0,*50
1486296168.36,55597,11.06,72154.5,-3.79,-36.13,-36.25,0,*53
1486296169.6,55598,11.06,72148.3,-3.77,-35.77,-36.01,0,*55
1486296170.81,55599,11.06,72152.0,-3.75,-35.71,-35.89,0,*53
1486296172.08,55600,11.06,72158.0,-3.73,-35.17,-35.41,0,*52
1486296173.33,55601,11.06,72158.3,-3.73,-35.35,-35.59,0,*5A
1486296174.59,55602,11.06,72162.3,-3.71,-36.43,-36.79,0,*58
1486296175.85,55603,11.06,72158.8,-3.71,-36.07,-36.25,0,*50
1486296177.11,55604,11.06,72162.8,-3.71,-35.83,-36.07,0,*58
1486296178.37,55605,11.06,72166.5,-3.71,-36.43,-36.61,0,*56
1486296179.58,55606,11.06,72166.5,-3.69,-36.67,-37.15,0,*58
1486296180.82,55607,11.06,72166.5,-3.69,-36.67,-37.21,0,*5E
1486296182.03,55608,11.06,72164.8,-3.69,-37.15,-37.27,0,*53
1486296183.24,55609,11.06,72160.8,-3.69,-36.01,-36.31,0,*50
1486296184.46,55610,11.06,72162.5,-3.69,-36.01,-36.31,0,*58
1486296185.67,55611,11.06,72162.8,-3.69,-36.01,-36.31,0,*59
1486296186.92,55612,11.06,72162.3,-3.71,-36.61,-36.85,0,*5A
1486296188.16,55613,11.06,72160.0,-3.69,-37.15,-37.39,0,*56
1486296189.4,55614,11.06,72162.8,-3.69,-36.79,-37.03,0,*53
1486296190.63,55615,11.06,72162.0,-3.71,-37.57,-37.75,0,*57
1486296191.89,55616,11.06,72166.5,-3.69,-37.81,-38.11,0,*5B
1486296193.13,55617,11.06,72162.8,-3.71,-37.57,-37.75,0,*55
1486296194.39,55618,11.06,72166.8,-3.73,-37.27,-37.69,0,*52
1486296195.62,55619,11.06,72164.8,-3.71,-37.57,-37.75,0,*5B
1486296196.88,55620,11.06,72166.5,-3.73,-36.91,-37.27,0,*5F
1486296198.13,55621,11.06,72168.3,-3.73,-37.45,-37.69,0,*5C
1486296199.4,55622,11.06,72166.0,-3.73,-37.21,-37.45,0,*53
1486296200.66,55623,11.06,72162.5,-3.75,-37.21,-37.51,0,*51
1486296201.89,55624,11.06,72164.3,-3.75,-37.45,-37.69,0,*5F
1486296203.15,55625,11.06,72164.3,-3.75,-37.51,-37.69,0,*5B
1486296204.39,55626,11.06,72170.3,-3.75,-37.87,-38.23,0,*52
1486296205.62,55627,11.06,72168.0,-3.75,-37.45,-37.81,0,*5A
1486296206.85,55628,11.06,72168.5,-3.75,-37.69,-38.17,0,*5B
1486296208.09,55629,11.06,72172.3,-3.77,-37.57,-37.75,0,*5E
1486296209.34,55630,11.06,72162.0,-3.77,-37.33,-37.69,0,*59
1486296210.57,55631,11.06,72160.3,-3.77,-37.75,-37.87,0,*5A
1486296211.77,55632,11.06,72148.3,-3.79,-37.75,-38.05,0,*52
1486296213.01,55633,11.06,72160.0,-3.79,-37.87,-38.11,0,*5B
1486296214.22,55634,11.06,72158.3,-3.79,-37.87,-38.05,0,*59
1486296215.48,55635,11.06,72156.8,-3.81,-38.11,-38.35,0,*5C
1486296216.77,55636,11.06,72156.0,-3.81,-37.93,-38.29,0,*57
1486296218.02,55637,11.06,72154.3,-3.83,-37.93,-38.11,0,*5F
1486296219.26,55638,11.06,72158.0,-3.83,-37.45,-37.63,0,*51
1486296220.5,55639,11.06,72154.5,-3.81,-36.97,-37.33,0,*59
1486296221.74,55640,11.06,72158.0,-3.83,-36.97,-37.21,0,*56
1486296223.0,55641,11.06,72158.3,-3.83,-37.63,-37.81,0,*57
1486296224.26,55642,11.06,72150.5,-3.83,-38.29,-38.49,0,*5E
1486296225.52,55643,11.06,72156.5,-3.83,-38.29,-38.49,0,*5F
1486296226.76,55644,11.06,72152.8,-3.83,-37.63,-37.75,0,*59
1486296228.03,55645,11.06,72156.5,-3.83,-37.81,-37.99,0,*56
1486296229.26,55646,11.06,72154.8,-3.87,-37.21,-37.45,0,*5A
1486296230.52,55647,11.06,72158.3,-3.87,-36.91,-37.21,0,*53
1486296231.76,55648,11.06,72162.5,-3.87,-36.91,-37.03,0,*5C
1486296232.96,55649,11.06,72158.3,-3.87,-37.03,-37.27,0,*51
1486296234.17,55650,11.06,72158.3,-3.87,-37.03,-37.27,0,*59
1486296235.4,55651,11.06,72158.3,-3.87,-36.73,-36.91,0,*52
1486296236.61,55652,11.06,72162.8,-3.87,-36.73,-37.03,0,*5B
1486296237.85,55653,11.06,72160.8,-3.87,-36.85,-37.21,0,*53
1486296239.11,55654,11.06,72162.5,-3.87,-36.91,-37.09,0,*5B
1486296240.34,55655,11.06,72162.5,-3.83,-36.79,-37.03,0,*52
1486296241.56,55656,11.06,72162.5,-3.83,-36.85,-37.15,0,*55
1486296242.78,55657,11.06,72170.5,-3.83,-36.79,-36.97,0,*5C
1486296244.03,55658,11.06,72166.8,-3.83,-36.25,-35.89,0,*56
1486296245.24,55659,11.06,72164.3,-3.83,-36.43,-37.03,0,*57
1486296246.45,55660,11.06,72162.0,-3.83,-37.33,-37.75,0,*5A
1486296247.68,55661,11.06,72158.0,-3.83,-37.93,-38.17,0,*5A
1486296248.94,55662,11.06,72158.8,-3.87,-37.09,-37.09,0,*5E
1486296250.18,55663,11.06,72158.3,-3.87,-37.03,-37.51,0,*58
1486296251.42,55664,11.06,72158.0,-3.89,-38.05,-38.43,0,*54
1486296252.71,55665,11.06,72158.3,-3.89,-38.11,-38.49,0,*5A
1486296253.94,55666,11.06,72166.0,-3.89,-37.15,-37.45,0,*51
1486296255.17,55667,11.06,72162.5,-3.91,-37.45,-37.51,0,*59
1486296256.41,55668,11.06,72158.8,-3.91,-37.27,-36.91,0,*5F
1486296257.67,55669,11.06,72148.3,-3.89,-34.71,-34.83,0,*56
1486296258.9,55670,11.06,72150.5,-3.91,-34.89,-35.65,0,*59
1486296260.12,55671,11.06,72148.0,-3.91,-36.01,-35.77,0,*59
1486296261.38,55672,11.06,72146.5,-3.93,-34.53,-34.89,0,*5D
1486296262.61,55673,11.06,72144.8,-3.95,-33.95,-34.35,0,*50
1486296263.86,55674,11.06,72154.8,-3.97,-34.13,-35.77,0,*5B
1486296265.13,55675,11.06,72162.3,-3.97,-37.21,-38.05,0,*50
1486296266.4,55676,11.06,72156.5,-3.99,-37.99,-38.23,0,*5A
1486296267.64,55677,11.06,72152.5,-3.99,-37.45,-37.81,0,*5D
1486296268.88,55678,11.06,72154.8,-3.99,-37.45,-37.69,0,*54
1486296270.11,55679,11.06,72148.5,-3.99,-37.45,-37.69,0,*55
1486296271.38,55680,11.06,72156.5,-3.99,-37.63,-37.81,0,*51
1486296272.62,55681,11.06,72154.8,-3.99,-37.45,-37.63,0,*58
1486296273.87,55682,11.06,72156.8,-3.99,-37.21,-37.57,0,*5E
1486296275.1,55683,11.06,72158.5,-3.99,-37.57,-37.69,0,*53
1486296276.35,55684,11.06,72158.5,-3.99,-37.87,-38.23,0,*58
1486296277.65,55685,11.06,72148.0,-4.01,-37.93,-38.23,0,*5A
1486296278.89,55686,11.06,72150.0,-3.99,-37.63,-37.87,0,*51
1486296280.13,55687,11.06,72150.0,-3.99,-37.57,-37.81,0,*51
1486296281.42,55688,11.06,72150.3,-4.01,-37.63,-37.93,0,*5C
1486296282.69,55689,11.06,72152.3,-4.01,-37.33,-37.51,0,*56
1486296283.96,55690,11.06,72150.5,-3.97,-37.21,-37.57,0,*53
1486296285.22,55691,11.06,72158.3,-3.99,-37.39,-37.69,0,*58
1486296286.48,55692,11.06,72152.0,-4.01,-37.45,-37.69,0,*56
1486296287.74,55693,11.06,72158.8,-4.01,-37.27,-37.51,0,*58
1486296288.98,55694,11.06,72154.3,-3.99,-37.03,-37.09,0,*52
1486296290.25,55695,11.06,72158.8,-4.01,-37.09,-37.45,0,*57
1486296291.52,55696,11.06,72156.3,-3.99,-37.39,-37.63,0,*55
1486296292.75,55697,11.06,72156.5,-3.99,-37.57,-37.69,0,*56
1486296294.0,55698,11.06,72162.0,-3.99,-37.87,-37.99,0,*5B
1486296295.24,55699,11.06,72162.0,-3.99,-37.45,-37.63,0,*51
1486296296.53,55700,11.06,72158.3,-4.01,-37.51,-37.69,0,*59
1486296297.8,55701,11.06,72156.8,-3.99,-37.51,-37.63,0,*54
1486296299.06,55702,11.06,72156.8,-4.01,-37.51,-37.75,0,*56
1486296300.32,55703,11.06,72162.3,-4.01,-37.75,-37.93,0,*59
1486296301.61,55704,11.06,72160.3,-4.01,-37.51,-37.69,0,*5D
1486296302.82,55705,11.06,72158.5,-3.99,-37.27,-37.45,0,*55
1486296304.11,55706,11.06,72152.5,-4.01,-37.93,-38.11,0,*51
1486296305.35,55707,11.06,72156.5,-3.99,-37.99,-37.87,0,*5C
1486296306.62,55708,11.06,72156.5,-4.01,-38.05,-38.23,0,*5E
1486296307.85,55709,11.06,72156.8,-4.03,-38.11,-38.43,0,*5E
1486296309.09,55710,11.06,72158.8,-4.03,-38.05,-38.23,0,*55
1486296310.33,55711,11.06,72170.0,-4.03,-38.05,-38.11,0,*55
1486296311.56,55712,11.06,72174.0,-4.03,-37.63,-37.75,0,*54
1486296312.79,55713,11.06,72162.0,-4.03,-36.97,-36.55,0,*5C
1486296314.04,55714,11.06,72162.5,-4.03,-35.65,-33.77,0,*50
1486296315.28,55715,11.06,72152.3,-4.03,-34.35,-31.45,0,*56
1486296316.5,55716,11.06,72158.3,-4.05,-31.67,-28.15,0,*5C
1486296317.76,55717,11.06,72160.3,-4.03,-29.29,-27.45,0,*52
1486296318.97,55718,11.06,72162.3,-4.09,-27.71,-27.71,0,*53
1486296320.24,55719,11.06,72166.3,-4.09,-26.33,-27.35,0,*55
1486296321.51,55720,11.06,72170.5,-4.05,-25.03,-26.81,0,*5D
1486296322.77,55721,11.06,72166.5,-4.05,-26.29,-28.75,0,*52
1486296324.02,55722,11.06,72162.3,-4.05,-28.31,-30.77,0,*5D
1486296325.26,55723,11.06,72160.0,-4.05,-31.45,-34.01,0,*52
1486296326.49,55724,11.06,72158.5,-4.05,-34.41,-35.89,0,*55
1486296327.73,55725,11.06,72158.8,-4.05,-35.83,-36.97,0,*57
1486296329.0,55726,11.06,72154.5,-4.05,-36.25,-36.79,0,*5B
1486296330.2,55727,11.06,72156.8,-4.09,-35.71,-36.85,0,*57
1486296331.48,55728,11.06,72162.0,-4.09,-37.81,-38.23,0,*57
1486296332.74,55729,11.06,72160.5,-4.11,-37.27,-37.81,0,*54
1486296333.99,55730,11.06,72160.3,-4.11,-37.87,-37.87,0,*50
1486296335.26,55731,11.06,72166.8,-4.13,-36.91,-37.81,0,*53
1486296336.5,55732,11.06,72162.8,-4.13,-37.09,-37.45,0,*58
1486296337.74,55733,11.06,72162.0,-4.13,-38.05,-38.29,0,*5F
1486296338.98,55734,11.06,72156.5,-4.13,-37.99,-38.17,0,*5F
1486296340.26,55735,11.06,72164.8,-4.13,-37.81,-37.99,0,*5E
1486296341.56,55736,11.06,72166.0,-4.15,-37.93,-38.23,0,*56
1486296342.85,55737,11.06,72164.8,-4.15,-38.11,-38.23,0,*52
1486296344.11,55738,11.06,72160.3,-4.15,-37.93,-38.05,0,*5C
1486296345.37,55739,11.06,72170.5,-4.15,-37.45,-37.69,0,*53
1486296346.67,55740,11.06,72170.8,-4.15,-37.81,-37.93,0,*50
1486296347.94,55741,11.06,72176.3,-4.15,-37.33,-37.63,0,*57
1486296349.2,55742,11.06,72168.8,-4.15,-36.79,-36.67,0,*5E
1486296350.44,55743,11.06,72170.3,-4.15,-37.33,-37.15,0,*54
1486296351.71,55744,11.06,72164.8,-4.15,-36.19,-36.49,0,*52
1486296353.0,55745,11.06,72170.5,-4.15,-37.51,-37.51,0,*56
1486296354.25,55746,11.06,72160.8,-4.15,-37.15,-36.67,0,*51
1486296355.49,55747,11.06,72158.0,-4.17,-37.27,-37.09,0,*5A
1486296356.74,55748,11.06,72156.0,-4.17,-35.95,-36.55,0,*56
1486296357.98,55749,11.06,72154.8,-4.17,-35.59,-35.83,0,*5F
1486296359.22,55750,11.06,72158.0,-4.19,-37.33,-37.57,0,*5C
1486296360.46,55751,11.06,72156.0,-4.19,-38.17,-38.35,0,*5F
1486296361.73,55752,11.06,72156.8,-4.19,-37.69,-37.87,0,*5C
1486296362.98,55753,11.06,72156.5,-4.21,-38.05,-38.23,0,*52
1486296364.27,55754,11.06,72162.8,-4.19,-37.93,-38.11,0,*5F
1486296365.53,55755,11.06,72166.3,-4.19,-37.93,-38.17,0,*58
1486296366.75,55756,11.06,72162.8,-4.21,-37.57,-37.57,0,*53
1486296367.97,55757,11.06,72160.5,-4.21,-36.85,-36.67,0,*5E
1486296369.26,55758,11.06,72154.3,-4.23,-36.79,-37.21,0,*53
1486296370.5,55759,11.06,72152.0,-4.21,-37.09,-37.75,0,*57
1486296371.77,55760,11.06,72150.3,-4.23,-37.21,-37.27,0,*52
1486296373.01,55761,11.06,72156.5,-4.21,-37.57,-37.93,0,*5F
1486296374.24,55762,11.06,72164.0,-4.23,-38.43,-38.61,0,*56
1486296375.5,55763,11.06,72162.0,-4.23,-37.93,-38.05,0,*57
1486296376.77,55764,11.06,72168.5,-4.23,-37.45,-37.81,0,*58
1486296378.06,55765,11.06,72168.8,-4.23,-37.09,-37.21,0,*5B
1486296379.3,55766,11.06,72174.5,-4.21,-37.45,-36.13,0,*52
1486296380.56,55767,11.06,72172.0,-4.23,-34.25,-32.79,0,*5C
1486296381.85,55768,11.06,72168.0,-4.23,-30.95,-31.51,0,*55
1486296383.12,55769,11.06,72174.5,-4.21,-32.79,-34.83,0,*5C
1486296384.36,55770,11.06,72176.8,-4.21,-35.89,-36.91,0,*5D
1486296385.59,55771,11.06,72174.0,-4.23,-37.27,-37.45,0,*50
1486296386.83,55772,11.06,72180.0,-4.21,-36.67,-36.13,0,*56
1486296388.11,55773,11.06,72168.3,-4.21,-34.95,-33.73,0,*5B
1486296389.34,55774,11.06,72156.0,-4.21,-33.55,-34.19,0,*5C
1486296390.63,55775,11.06,72158.0,-4.19,-33.77,-33.31,0,*5B
1486296391.87,55776,11.06,72156.0,-4.19,-33.03,-33.21,0,*5A
1486296393.11,55777,11.06,72148.3,-4.19,-32.57,-33.83,0,*53
1486296394.35,55778,11.06,72162.5,-4.23,-36.85,-38.97,0,*50
1486296395.63,55779,11.06,72162.8,-4.23,-36.49,-37.09,0,*59
1486296396.9,55780,11.06,72158.0,-4.23,-37.27,-37.81,0,*56
1486296398.14,55781,11.06,72164.8,-4.21,-37.09,-37.45,0,*51
1486296399.43,55782,11.06,72160.0,-4.23,-36.91,-37.21,0,*52
1486296400.7,55783,11.06,72160.3,-4.23,-36.85,-37.39,0,*5F
1486296401.94,55784,11.06,72162.3,-4.25,-37.09,-37.15,0,*55
1486296403.2,55785,11.06,72162.8,-4.23,-37.09,-37.27,0,*53
1486296404.45,55786,11.06,72158.5,-4.25,-37.63,-37.87,0,*50
1486296405.69,55787,11.06,72158.5,-4.25,-37.69,-37.87,0,*5B
1486296406.92,55788,11.06,72162.5,-4.23,-37.45,-37.75,0,*51
1486296408.22,55789,11.06,72170.5,-4.23,-37.39,-37.63,0,*5C
1486296409.43,55790,11.06,72158.5,-4.25,-37.27,-37.27,0,*5D
1486296410.69,55791,11.06,72162.8,-4.23,-37.81,-38.05,0,*59
1486296411.99,55792,11.06,72150.8,-4.23,-37.93,-37.99,0,*53
1486296413.23,55793,11.06,72148.8,-4.25,-37.45,-37.63,0,*5A
1486296414.47,55794,11.06,72152.3,-4.25,-37.45,-37.63,0,*5D
1486296415.73,55795,11.06,72152.8,-4.25,-37.63,-37.69,0,*52
1486296417.02,55796,11.06,72156.5,-4.27,-37.69,-37.69,0,*59
1486296418.28,55797,11.06,72164.3,-4.25,-37.51,-37.69,0,*51
1486296419.49,55798,11.06,72168.3,-4.25,-37.45,-37.33,0,*54
1486296420.7,55799,11.06,72170.0,-4.25,-37.15,-37.33,0,*50
1486296421.94,55800,11.06,72168.5,-4.25,-37.45,-37.63,0,*5F
1486296423.18,55801,11.06,72170.3,-4.25,-37.45,-37.51,0,*5F
1486296424.39,55802,11.06,72168.5,-4.25,-37.45,-37.33,0,*58
1486296425.66,55803,11.06,72164.0,-4.25,-37.09,-37.09,0,*58
1486296426.93,55804,11.06,72164.0,-4.25,-37.69,-37.99,0,*50
1486296428.14,55805,11.06,72162.3,-4.25,-37.87,-38.05,0,*5B
1486296429.41,55806,11.06,72166.3,-4.25,-37.69,-37.63,0,*57
1486296430.66,55807,11.06,72166.8,-4.25,-37.81,-37.87,0,*5A
1486296431.9,55808,11.06,72170.3,-4.27,-37.33,-37.27,0,*54
1486296433.14,55809,11.06,72166.3,-4.25,-36.85,-36.91,0,*57
1486296434.35,55810,11.06,72158.8,-4.25,-36.67,-36.73,0,*5F
1486296435.62,55811,11.06,72158.3,-4.25,-37.69,-37.81,0,*5D
1486296436.88,55812,11.06,72158.8,-4.23,-38.23,-38.35,0,*59
1486296438.18,55813,11.06,72158.0,-4.27,-37.81,-37.99,0,*52
1486296439.45,55814,11.06,72164.3,-4.27,-36.73,-36.49,0,*55
1486296440.72,55815,11.06,72168.8,-4.23,-36.61,-35.77,0,*5D
1486296441.96,55816,11.06,72168.0,-4.25,-36.49,-34.89,0,*52
1486296443.19,55817,11.06,72164.0,-4.25,-34.41,-33.61,0,*58
1486296444.49,55818,11.06,72146.0,-4.27,-35.07,-35.53,0,*51
1486296445.78,55819,11.06,72132.3,-4.23,-35.95,-37.21,0,*58
1486296447.07,55820,11.06,72140.8,-4.23,-35.95,-36.49,0,*5D
1486296448.31,55821,11.06,72156.0,-4.23,-36.67,-37.03,0,*5D
1486296449.55,55822,11.06,72156.3,-4.23,-36.67,-36.67,0,*5D
1486296450.77,55823,11.06,72160.0,-4.21,-35.01,-35.13,0,*5D
1486296452.03,55824,11.06,72152.3,-4.23,-35.47,-35.65,0,*5B
1486296453.26,55825,11.06,72158.0,-4.21,-35.29,-35.29,0,*58
1486296454.48,55826,11.06,72162.5,-4.21,-35.71,-35.89,0,*5C
1486296455.72,55827,11.06,72148.5,-4.19,-37.33,-36.97,0,*5E
1486296456.95,55828,11.06,72162.8,-4.17,-35.77,-35.77,0,*50
1486296458.24,55829,11.06,72166.8,-4.19,-35.41,-35.83,0,*51
1486296459.47,55830,11.06,72166.3,-4.17,-36.13,-36.31,0,*59
1486296460.69,55831,11.06,72158.8,-4.17,-37.15,-37.33,0,*5C
1486296461.99,55832,11.13,72168.8,-4.15,-37.81,-37.93,0,*5A
1486296463.26,55833,11.06,72162.3,-4.17,-37.69,-37.81,0,*5C
1486296464.51,55834,11.06,72164.0,-4.17,-37.81,-37.87,0,*5B
1486296465.78,55835,11.06,72162.5,-4.19,-37.03,-37.21,0,*52
1486296467.01,55836,11.06,72170.0,-4.19,-36.73,-36.85,0,*58
1486296468.24,55837,11.06,72176.3,-4.17,-36.67,-36.55,0,*5F
1486296469.51,55838,11.06,72178.8,-4.17,-36.49,-36.13,0,*5E
1486296470.78,55839,11.06,72172.3,-4.17,-35.95,-35.35,0,*5A
1486296472.02,55840,11.06,72168.5,-4.17,-35.77,-35.53,0,*58
1486296473.27,55841,11.06,72166.5,-4.17,-35.83,-36.31,0,*55
1486296474.53,55842,11.06,72166.0,-4.17,-36.13,-36.49,0,*53
1486296475.77,55843,11.06,72164.5,-4.15,-36.97,-37.27,0,*55
1486296477.04,55844,11.13,72164.3,-4.15,-36.97,-37.09,0,*5E
1486296478.28,55845,11.06,72160.8,-4.15,-36.67,-36.73,0,*5C
1486296479.55,55846,11.06,72164.0,-4.17,-36.37,-36.49,0,*51
1486296480.79,55847,11.06,72166.5,-4.17,-36.73,-36.91,0,*55
1486296482.08,55848,11.06,72156.3,-4.15,-36.79,-35.35,0,*5F
1486296483.3,55849,11.06,72160.0,-4.17,-32.69,-31.05,0,*5E
1486296484.55,55850,11.06,72166.8,-4.15,-29.67,-31.05,0,*50
1486296485.81,55851,11.06,72164.8,-4.15,-29.79,-32.63,0,*5D
1486296487.05,55852,11.06,72168.0,-4.15,-32.91,-34.13,0,*53
1486296488.31,55853,11.06,72170.5,-4.15,-35.35,-36.01,0,*5A
1486296489.56,55854,11.06,72160.5,-4.13,-36.67,-36.91,0,*56
1486296490.83,55855,11.06,72166.0,-4.13,-37.21,-37.21,0,*5E
1486296492.08,55856,11.06,72170.0,-4.15,-35.59,-35.77,0,*57
1486296493.28,55857,11.06,72162.5,-4.09,-36.67,-36.85,0,*5B
1486296494.54,55858,11.13,72164.8,-4.11,-36.13,-36.31,0,*51
1486296495.81,55859,11.06,72166.5,-4.11,-36.49,-36.73,0,*59
1486296497.07,55860,11.06,72168.0,-4.11,-36.67,-36.91,0,*53
1486296498.33,55861,11.06,72160.8,-4.11,-36.85,-36.91,0,*5E
1486296499.57,55862,11.06,72164.0,-4.09,-37.03,-37.21,0,*51
1486296500.83,55863,11.06,72164.0,-4.11,-36.85,-36.91,0,*5C